DELTA 1 DEB

Satellite information

Favourite Embed

Satellite Type and Status

DEBRISIN ORBIT

Key statistics

Satellite DELTA 1 DEB at a glance.

Uptime

17450

Days in orbit

Revolutions

≈ 14.3

Per day

Orbit

SSO

Sun Synchronous Orbit

Inclination

98.7

Latest

Satellite identification and parameters

Extended collection of information and parameters for DELTA 1 DEB.

Object identification

Identified? True

Debris? True

Object name: DELTA 1 DEB

International designator: 1978-026J

Object number (NORAD): 12169

Object ID (CCSDS): 12169

Country: UNITED STATES OF AMERICA (US)

Current information (Y/N): Y

RCS size: SMALL

Orbital parameters

Period: 100.443 minutes

Inclination: 98.7203 deg

SMA: 7157.709 km

Apoapsis: 827.528 km

Periapsis: 731.621 km

RAAN: 5.2496 deg

Eccentricy: 0.0066996

Argument of periapsis: 273.9185 deg

Mean anomaly: 112.1209 deg

Mean motion: 14.33645167 rev/day

Mean motion (dot): 0.00000991 rev/day2

B* drag term: 0.0003649 1/REarth

Two-line elements (TLE)

Creation date: Dec. 12, 2025, 7:16 a.m.

Reference frame: TEME

Reference center: EARTH

Epoch: Dec. 12, 2025, 12:55 a.m. UTC

TLE line 0: 0 DELTA 1 DEB

TLE line 1: 1 12169U 78026J 25346.03871044 .00000991 00000-0 36490-3 0 9993

TLE line 2: 2 12169 98.7203 5.2496 0066996 273.9185 112.1209 14.33645167333484

Live tracking on map

Real-time ground track for satellite DELTA 1 DEB.

In-orbit conjunctions

A list of the most updated potential collisions computed for object DELTA 1 DEB.

Target Orbit TCA Probability of collision Miss distance Type
CZ-6A DEB LEO 2025-04-15 17:25:00 0.003357872 26.0 (m) DEBRIS
COSMOS 2251 DEB LEO 2024-08-07 05:23:17 0.0002832 207.0 (m) DEBRIS

Associated space launch

Earth observation satellite

DELTA 1 DEB was lifted into orbit during the mission ‘Delta 2910 | Landsat 3’, on board a Delta 2910 space rocket.

The launch took place on March 5, 1978, 5:54 p.m. from Space Launch Complex 2W.

For more information about the launch, click the button.

Launch to space Delta 2910 | Landsat 3
Delta 2910 | Landsat 3

Agency: N/A

Status: Launch Successful

Launch date: March 5, 1978, 5:54 p.m. UTC

Rocket: Delta 2910

Launch pad: Space Launch Complex 2W

Location: Vandenberg SFB, CA, USA

...

Latest news about this satellite

There are no fresh news available about this satellite. Check back as we update our databases every day.


Newsletter sign-up

Weekly statistics, charts and insights to help you stay on top of the space industry.